This is the latest recevied weather packets stored in our database for station/object SP1BMW-13. If no packets are shown the sender has not sent any weather packets the latest 10 day(s).
| Time | Temp. | Humidity | Pressure | Rain* | Wind** | Luminosity | Snow |
|---|---|---|---|---|---|---|---|
| 1778255100 | 13.89° C | 52% | 1019.2 hPa | 0 mm | 0.45 m/s, 49° | 95 W/m² | - |
| 1778255040 | 13.89° C | 52% | 1019.3 hPa | 0 mm | 0.89 m/s, 43° | 94 W/m² | - |
| 1778254980 | 13.89° C | 53% | 1019.2 hPa | 0 mm | 0 m/s | 93 W/m² | - |
| 1778254921 | 13.89° C | 53% | 1019.2 hPa | 0 mm | 0 m/s | 93 W/m² | - |
| 1778254860 | 13.89° C | 53% | 1019.1 hPa | 0 mm | 0.45 m/s, 330° | 93 W/m² | - |
| 1778254800 | 13.89° C | 53% | 1019 hPa | 0 mm | 0 m/s | 94 W/m² | - |
| 1778254740 | 13.89° C | 53% | 1019.3 hPa | 0 mm | 0 m/s | 96 W/m² | - |
| 1778254680 | 13.89° C | 52% | 1019.3 hPa | 0 mm | 0.45 m/s, 317° | 97 W/m² | - |
| 1778254620 | 13.89° C | 54% | 1019.2 hPa | 0 mm | 0 m/s | 98 W/m² | - |
| 1778254560 | 13.89° C | 54% | 1019.1 hPa | 0 mm | 0 m/s | 99 W/m² | - |
| 1778254500 | 13.89° C | 53% | 1019.2 hPa | 0 mm | 0 m/s | 100 W/m² | - |
| 1778254440 | 13.89° C | 52% | 1019.1 hPa | 0 mm | 0 m/s | 101 W/m² | - |
| 1778254381 | 13.89° C | 52% | 1019.1 hPa | 0 mm | 0.45 m/s, 321° | 100 W/m² | - |
| 1778254320 | 13.89° C | 52% | 1019.2 hPa | 0 mm | 1.79 m/s, 324° | 99 W/m² | - |
| 1778254260 | 13.89° C | 54% | 1019.2 hPa | 0 mm | 0.89 m/s, 301° | 97 W/m² | - |
| 1778254201 | 13.89° C | 54% | 1019.2 hPa | 0 mm | 0.45 m/s, 42° | 95 W/m² | - |
| 1778254140 | 13.89° C | 54% | 1019.1 hPa | 0 mm | 0.45 m/s, 287° | 93 W/m² | - |
| 1778254080 | 13.89° C | 53% | 1019.2 hPa | 0 mm | 0.45 m/s, 316° | 92 W/m² | - |
| 1778254020 | 13.89° C | 54% | 1019.2 hPa | 0 mm | 0.45 m/s, 324° | 92 W/m² | - |
| 1778253960 | 13.89° C | 54% | 1019.3 hPa | 0 mm | 0 m/s | 92 W/m² | - |
| 1778253900 | 13.89° C | 54% | 1019.3 hPa | 0 mm | 0 m/s | 93 W/m² | - |
| 1778253840 | 13.89° C | 53% | 1019.2 hPa | 0 mm | 0.45 m/s, 42° | 93 W/m² | - |
| 1778253780 | 13.89° C | 53% | 1019.3 hPa | 0 mm | 0 m/s | 93 W/m² | - |
| 1778253720 | 13.89° C | 52% | 1019 hPa | 0 mm | 0.45 m/s, 68° | 93 W/m² | - |
| 1778253660 | 13.89° C | 52% | 1019.3 hPa | 0 mm | 0.45 m/s, 297° | 93 W/m² | - |
* Rain latest hour (hover to see other rain measurements)
** Current wind speed in m/s (hover to see current wind gust speed)